Track ONEWEB-0217 now! 10-day predictions ONEWEB-0217 is classified as:
1 48245U 21031AM 22136.69875113 .00000223 00000-0 56828-3 0 9993 2 48245 87.9041 226.2966 0001466 115.3611 244.7671 13.14501676 52105